| time (UTC) | temp F | wind direction | speed MPH | gust MPH | rain 1hr in | rain 24hr in | rain mn in | humidity % | barometer mb |
| 20260505125002 | 75 | 117 | 3.0 | 9.0 | 0.00 | 0.02 | 0.01 | 75 | 1014.1 |
| 20260505124502 | 74 | 113 | 3.0 | 9.0 | 0.00 | 0.02 | 0.01 | 77 | 1014.0 |
| 20260505124002 | 74 | 102 | 3.0 | 8.0 | 0.00 | 0.02 | 0.01 | 77 | 1014.1 |
| 20260505123502 | 73 | 101 | 3.0 | 8.0 | 0.00 | 0.02 | 0.01 | 78 | 1014.1 |
| 20260505123002 | 72 | 98 | 3.0 | 9.0 | 0.00 | 0.02 | 0.01 | 79 | 1014.1 |
| 20260505122502 | 72 | 92 | 3.0 | 9.0 | 0.00 | 0.02 | 0.01 | 80 | 1014.2 |
| 20260505122002 | 71 | 87 | 3.0 | 9.0 | 0.00 | 0.02 | 0.01 | 82 | 1014.2 |
| 20260505121523 | 71 | 85 | 3.0 | 7.0 | 0.00 | 0.02 | 0.01 | 84 | 1014.0 |
| 20260505121023 | 70 | 90 | 3.0 | 7.0 | 0.00 | 0.02 | 0.01 | 85 | 1013.9 |
| 20260505120502 | 69 | 91 | 3.0 | 7.0 | 0.00 | 0.02 | 0.01 | 86 | 1014.0 |
| 20260505120003 | 68 | 88 | 3.0 | 6.0 | 0.00 | 0.02 | 0.01 | 87 | 1014.0 |
| 20260505115523 | 68 | 86 | 2.0 | 5.0 | 0.00 | 0.02 | 0.01 | 87 | 1013.9 |
| 20260505115023 | 67 | 83 | 2.0 | 6.0 | 0.00 | 0.02 | 0.01 | 87 | 1013.8 |
| 20260505114523 | 67 | 88 | 2.0 | 6.0 | 0.00 | 0.02 | 0.01 | 87 | 1013.7 |
| 20260505114023 | 67 | 88 | 2.0 | 6.0 | 0.00 | 0.02 | 0.01 | 87 | 1013.6 |
| 20260505113502 | 66 | 83 | 2.0 | 5.0 | 0.00 | 0.02 | 0.01 | 87 | 1013.5 |
| 20260505113023 | 66 | 88 | 2.0 | 5.0 | 0.00 | 0.02 | 0.01 | 87 | 1013.4 |
| 20260505112502 | 66 | 81 | 2.0 | 5.0 | 0.00 | 0.02 | 0.01 | 87 | 1013.4 |
| 20260505112003 | 66 | 78 | 2.0 | 5.0 | 0.00 | 0.02 | 0.01 | 87 | 1013.4 |
| 20260505111502 | 66 | 85 | 2.0 | 4.0 | 0.00 | 0.02 | 0.01 | 87 | 1013.3 |
| 20260505111003 | 65 | 86 | 2.0 | 4.0 | 0.00 | 0.02 | 0.01 | 87 | 1013.2 |
| 20260505110502 | 65 | 78 | 1.0 | 4.0 | 0.00 | 0.02 | 0.01 | 87 | 1013.3 |
| 20260505102002 | 66 | 82 | 1.0 | 4.0 | 0.00 | 0.02 | 0.01 | 86 | 1012.8 |
| 20260505101504 | 66 | 84 | 1.0 | 4.0 | 0.00 | 0.02 | 0.01 | 86 | 1012.9 |
| 20260505101004 | 66 | 79 | 1.0 | 4.0 | 0.00 | 0.02 | 0.01 | 86 | 1012.9 |
| 20260505100502 | 66 | 78 | 1.0 | 4.0 | 0.00 | 0.02 | 0.01 | 86 | 1013.0 |
| 20260505100003 | 66 | 84 | 2.0 | 5.0 | 0.00 | 0.02 | 0.01 | 86 | 1012.8 |
| 20260505095502 | 66 | 90 | 2.0 | 5.0 | 0.00 | 0.02 | 0.01 | 86 | 1012.7 |
| 20260505095002 | 66 | 84 | 1.0 | 4.0 | 0.00 | 0.02 | 0.01 | 86 | 1012.7 |
| 20260505094503 | 66 | 82 | 2.0 | 5.0 | 0.00 | 0.02 | 0.01 | 86 | 1012.7 |
| 20260505094002 | 66 | 84 | 2.0 | 5.0 | 0.00 | 0.02 | 0.01 | 86 | 1012.6 |
| 20260505093502 | 66 | 83 | 2.0 | 4.0 | 0.00 | 0.02 | 0.01 | 86 | 1012.6 |
| 20260505093004 | 66 | 80 | 2.0 | 4.0 | 0.00 | 0.02 | 0.01 | 86 | 1012.5 |
| 20260505092503 | 66 | 69 | 1.0 | 4.0 | 0.00 | 0.02 | 0.01 | 86 | 1012.4 |
| 20260505092002 | 66 | 70 | 2.0 | 5.0 | 0.00 | 0.02 | 0.01 | 85 | 1012.5 |
| 20260505091502 | 66 | 82 | 2.0 | 5.0 | 0.00 | 0.02 | 0.01 | 85 | 1012.5 |
| 20260505091002 | 66 | 86 | 2.0 | 4.0 | 0.00 | 0.02 | 0.01 | 85 | 1012.3 |
| 20260505090503 | 66 | 83 | 2.0 | 6.0 | 0.00 | 0.02 | 0.01 | 85 | 1012.3 |
| 20260505090003 | 66 | 79 | 2.0 | 7.0 | 0.00 | 0.02 | 0.01 | 85 | 1012.4 |
| 20260505085502 | 66 | 79 | 3.0 | 7.0 | 0.00 | 0.02 | 0.01 | 85 | 1012.3 |
| 20260505085002 | 66 | 79 | 2.0 | 6.0 | 0.00 | 0.02 | 0.01 | 85 | 1012.3 |
| 20260505084503 | 67 | 78 | 2.0 | 5.0 | 0.00 | 0.02 | 0.01 | 85 | 1012.4 |
| 20260505084002 | 67 | 81 | 2.0 | 7.0 | 0.00 | 0.02 | 0.01 | 85 | 1012.3 |
| 20260505083502 | 67 | 85 | 2.0 | 7.0 | 0.00 | 0.02 | 0.01 | 85 | 1012.3 |
| 20260505083002 | 67 | 82 | 2.0 | 4.0 | 0.00 | 0.02 | 0.01 | 85 | 1012.4 |
| 20260505082502 | 67 | 78 | 2.0 | 5.0 | 0.00 | 0.02 | 0.01 | 85 | 1012.3 |
| 20260505082002 | 67 | 82 | 2.0 | 6.0 | 0.00 | 0.02 | 0.01 | 85 | 1012.4 |
| 20260505081502 | 67 | 81 | 2.0 | 6.0 | 0.00 | 0.02 | 0.01 | 85 | 1012.3 |
| 20260505081002 | 67 | 83 | 2.0 | 6.0 | 0.00 | 0.02 | 0.01 | 85 | 1012.2 |
| 20260505080502 | 67 | 86 | 2.0 | 5.0 | 0.00 | 0.02 | 0.01 | 85 | 1012.3 |
| 20260505080003 | 67 | 83 | 2.0 | 5.0 | 0.00 | 0.02 | 0.01 | 84 | 1012.3 |
| 20260505075502 | 67 | 81 | 2.0 | 4.0 | 0.00 | 0.02 | 0.01 | 84 | 1012.4 |
| 20260505075003 | 67 | 77 | 2.0 | 4.0 | 0.00 | 0.02 | 0.01 | 84 | 1012.7 |
| 20260505074502 | 67 | 76 | 2.0 | 4.0 | 0.00 | 0.02 | 0.01 | 84 | 1012.6 |
| 20260505074002 | 67 | 78 | 2.0 | 5.0 | 0.00 | 0.02 | 0.01 | 84 | 1012.7 |
| 20260505073523 | 68 | 77 | 2.0 | 5.0 | 0.00 | 0.02 | 0.01 | 84 | 1012.7 |
| 20260505073002 | 68 | 76 | 2.0 | 4.0 | 0.00 | 0.02 | 0.01 | 84 | 1012.7 |
| 20260505072502 | 68 | 71 | 2.0 | 4.0 | 0.00 | 0.02 | 0.01 | 84 | 1012.7 |
| 20260505072023 | 68 | 69 | 2.0 | 4.0 | 0.00 | 0.03 | 0.01 | 84 | 1012.7 |
| 20260505071502 | 68 | 69 | 2.0 | 4.0 | 0.00 | 0.03 | 0.01 | 83 | 1012.6 |
| 20260505071002 | 68 | 77 | 2.0 | 5.0 | 0.00 | 0.03 | 0.01 | 83 | 1012.6 |
| 20260505070502 | 68 | 80 | 3.0 | 6.0 | 0.00 | 0.03 | 0.01 | 83 | 1012.7 |
| 20260505070023 | 68 | 73 | 3.0 | 6.0 | 0.00 | 0.03 | 0.01 | 83 | 1012.7 |
| 20260505065502 | 68 | 72 | 2.0 | 6.0 | 0.00 | 0.03 | 0.01 | 83 | 1012.8 |
| 20260505065002 | 68 | 82 | 2.0 | 6.0 | 0.00 | 0.03 | 0.01 | 83 | 1012.7 |
| 20260505064502 | 68 | 84 | 2.0 | 6.0 | 0.00 | 0.03 | 0.01 | 83 | 1012.8 |
| 20260505064002 | 69 | 81 | 2.0 | 5.0 | 0.00 | 0.03 | 0.01 | 83 | 1012.7 |
| 20260505063502 | 69 | 73 | 2.0 | 4.0 | 0.00 | 0.03 | 0.01 | 83 | 1012.8 |
| 20260505063002 | 69 | 62 | 2.0 | 4.0 | 0.01 | 0.03 | 0.01 | 83 | 1013.2 |
| 20260505062502 | 69 | 57 | 2.0 | 4.0 | 0.01 | 0.03 | 0.01 | 83 | 1013.2 |
| 20260505062003 | 69 | 64 | 2.0 | 4.0 | 0.01 | 0.03 | 0.01 | 83 | 1013.3 |
| 20260505061503 | 69 | 74 | 2.0 | 4.0 | 0.01 | 0.03 | 0.01 | 82 | 1013.5 |
| 20260505061003 | 69 | 73 | 2.0 | 4.0 | 0.01 | 0.03 | 0.01 | 82 | 1013.6 |
| 20260505060502 | 69 | 74 | 2.0 | 4.0 | 0.01 | 0.03 | 0.01 | 82 | 1013.5 |
| 20260505060003 | 69 | 77 | 2.0 | 4.0 | 0.01 | 0.03 | 0.01 | 82 | 1013.6 |
| 20260505055502 | 69 | 74 | 2.0 | 5.0 | 0.01 | 0.03 | 0.01 | 82 | 1013.3 |
| 20260505055003 | 69 | 72 | 2.0 | 5.0 | 0.01 | 0.03 | 0.01 | 82 | 1013.3 |
| 20260505054502 | 69 | 72 | 2.0 | 5.0 | 0.01 | 0.03 | 0.01 | 82 | 1013.4 |
| 20260505054003 | 69 | 69 | 2.0 | 5.0 | 0.01 | 0.03 | 0.01 | 82 | 1013.3 |
| 20260505053502 | 69 | 70 | 2.0 | 4.0 | 0.01 | 0.03 | 0.01 | 82 | 1013.5 |
| 20260505053024 | 70 | 78 | 2.0 | 4.0 | 0.00 | 0.02 | 0.00 | 81 | 1013.6 |
| 20260505052502 | 70 | 92 | 1.0 | 3.0 | 0.00 | 0.02 | 0.00 | 81 | 1013.6 |
| 20260505052002 | 70 | 85 | 1.0 | 3.0 | 0.00 | 0.02 | 0.00 | 81 | 1013.6 |
| 20260505051503 | 70 | 81 | 1.0 | 3.0 | 0.00 | 0.02 | 0.00 | 81 | 1013.7 |
| 20260505051002 | 70 | 86 | 1.0 | 4.0 | 0.00 | 0.02 | 0.00 | 80 | 1013.7 |
| 20260505050502 | 70 | 85 | 1.0 | 4.0 | 0.00 | 0.02 | 0.00 | 80 | 1013.7 |
| 20260505041523 | 71 | 79 | 2.0 | 4.0 | 0.00 | 0.02 | 0.00 | 78 | 1014.2 |
| 20260505041002 | 72 | 69 | 1.0 | 4.0 | 0.00 | 0.02 | 0.00 | 78 | 1014.1 |
| 20260505040502 | 72 | 72 | 1.0 | 4.0 | 0.00 | 0.02 | 0.00 | 78 | 1014.1 |
| 20260505040005 | 72 | 81 | 1.0 | 4.0 | 0.00 | 0.02 | 0.00 | 77 | 1014.1 |
| 20260505035525 | 72 | 84 | 1.0 | 4.0 | 0.00 | 0.02 | 0.02 | 77 | 1014.2 |
| 20260505035003 | 72 | 80 | 1.0 | 4.0 | 0.00 | 0.02 | 0.02 | 76 | 1014.2 |
| 20260505034502 | 72 | 75 | 1.0 | 5.0 | 0.00 | 0.02 | 0.02 | 76 | 1014.2 |
| 20260505034002 | 73 | 78 | 2.0 | 5.0 | 0.00 | 0.02 | 0.02 | 76 | 1014.1 |
| 20260505033502 | 73 | 73 | 2.0 | 5.0 | 0.00 | 0.02 | 0.02 | 76 | 1014.1 |
| 20260505033003 | 73 | 76 | 2.0 | 5.0 | 0.00 | 0.02 | 0.02 | 75 | 1014.1 |
| 20260505032502 | 73 | 84 | 3.0 | 5.0 | 0.00 | 0.02 | 0.02 | 75 | 1014.1 |
| 20260505032002 | 73 | 89 | 2.0 | 5.0 | 0.00 | 0.02 | 0.02 | 75 | 1014.1 |
| 20260505031502 | 74 | 93 | 2.0 | 5.0 | 0.00 | 0.02 | 0.02 | 74 | 1014.2 |
| 20260505031023 | 74 | 88 | 2.0 | 6.0 | 0.00 | 0.02 | 0.02 | 74 | 1014.2 |
| 20260505030502 | 74 | 86 | 2.0 | 6.0 | 0.00 | 0.02 | 0.02 | 74 | 1014.0 |
| 20260505030023 | 74 | 90 | 3.0 | 6.0 | 0.00 | 0.02 | 0.02 | 73 | 1014.3 |
| 20260505025523 | 74 | 95 | 3.0 | 6.0 | 0.00 | 0.02 | 0.02 | 73 | 1014.2 |
| 20260505025002 | 74 | 102 | 3.0 | 10.0 | 0.00 | 0.02 | 0.02 | 73 | 1014.1 |
| 20260505024502 | 74 | 98 | 3.0 | 10.0 | 0.00 | 0.02 | 0.02 | 73 | 1014.1 |
| 20260505024002 | 75 | 91 | 2.0 | 7.0 | 0.00 | 0.02 | 0.02 | 72 | 1014.0 |
| 20260505023502 | 75 | 97 | 3.0 | 7.0 | 0.00 | 0.02 | 0.02 | 72 | 1013.9 |
| 20260505023002 | 75 | 100 | 3.0 | 9.0 | 0.00 | 0.03 | 0.02 | 72 | 1013.7 |
| 20260505022503 | 75 | 103 | 3.0 | 9.0 | 0.00 | 0.03 | 0.02 | 72 | 1013.8 |
| 20260505022003 | 75 | 105 | 2.0 | 7.0 | 0.00 | 0.03 | 0.02 | 72 | 1013.8 |
| 20260505021503 | 76 | 102 | 2.0 | 7.0 | 0.00 | 0.03 | 0.02 | 72 | 1013.9 |
| 20260505021002 | 76 | 89 | 2.0 | 7.0 | 0.00 | 0.03 | 0.02 | 72 | 1013.9 |
| 20260505020502 | 76 | 84 | 3.0 | 7.0 | 0.00 | 0.03 | 0.02 | 71 | 1013.9 |
| 20260505020002 | 76 | 86 | 3.0 | 7.0 | 0.00 | 0.03 | 0.02 | 72 | 1013.9 |
| 20260505015502 | 76 | 87 | 2.0 | 6.0 | 0.00 | 0.03 | 0.02 | 72 | 1013.8 |
| 20260505015003 | 76 | 101 | 3.0 | 11.0 | 0.00 | 0.03 | 0.02 | 71 | 1013.6 |
| 20260505014502 | 76 | 102 | 3.0 | 11.0 | 0.00 | 0.03 | 0.02 | 71 | 1013.6 |
| 20260505014002 | 76 | 92 | 3.0 | 6.0 | 0.00 | 0.03 | 0.02 | 71 | 1013.6 |
| 20260505013502 | 76 | 95 | 3.0 | 9.0 | 0.00 | 0.03 | 0.02 | 71 | 1013.5 |
| 20260505013002 | 76 | 94 | 3.0 | 9.0 | 0.00 | 0.03 | 0.02 | 71 | 1013.3 |
| 20260505012503 | 76 | 96 | 3.0 | 9.0 | 0.00 | 0.03 | 0.02 | 71 | 1013.2 |
| 20260505012003 | 77 | 108 | 3.0 | 9.0 | 0.00 | 0.03 | 0.02 | 71 | 1013.3 |
| 20260505011503 | 77 | 108 | 3.0 | 9.0 | 0.00 | 0.03 | 0.02 | 71 | 1013.3 |
| 20260505011003 | 77 | 96 | 3.0 | 9.0 | 0.00 | 0.03 | 0.02 | 71 | 1013.2 |
| 20260505010523 | 77 | 91 | 3.0 | 7.0 | 0.00 | 0.03 | 0.02 | 71 | 1013.2 |
| 20260505010024 | 77 | 91 | 3.0 | 7.0 | 0.00 | 0.03 | 0.02 | 70 | 1013.2 |
| 20260505005502 | 77 | 93 | 3.0 | 9.0 | 0.00 | 0.03 | 0.02 | 70 | 1013.1 |
| 20260505005002 | 78 | 93 | 3.0 | 9.0 | 0.00 | 0.03 | 0.02 | 70 | 1012.9 |
| 20260505004523 | 78 | 92 | 4.0 | 10.0 | 0.00 | 0.03 | 0.02 | 70 | 1013.0 |
| 20260505004023 | 78 | 93 | 5.0 | 13.0 | 0.00 | 0.03 | 0.02 | 69 | 1012.7 |
| 20260505003502 | 78 | 86 | 4.0 | 13.0 | 0.00 | 0.03 | 0.02 | 69 | 1012.8 |
| 20260505003003 | 78 | 80 | 4.0 | 12.0 | 0.00 | 0.03 | 0.02 | 69 | 1012.7 |
| 20260505002502 | 79 | 83 | 3.0 | 7.0 | 0.00 | 0.03 | 0.02 | 69 | 1012.7 |
| 20260505002003 | 79 | 88 | 3.0 | 7.0 | 0.00 | 0.03 | 0.02 | 68 | 1012.7 |
| 20260505001502 | 79 | 84 | 3.0 | 7.0 | 0.00 | 0.03 | 0.02 | 68 | 1012.5 |
| 20260505001002 | 79 | 90 | 4.0 | 10.0 | 0.00 | 0.03 | 0.02 | 68 | 1012.3 |
| 20260505000502 | 79 | 95 | 3.0 | 10.0 | 0.00 | 0.03 | 0.02 | 67 | 1012.2 |
| 20260505000023 | 80 | 87 | 3.0 | 11.0 | 0.00 | 0.03 | 0.02 | 67 | 1012.2 |
| 20260504235502 | 80 | 86 | 4.0 | 11.0 | 0.00 | 0.03 | 0.02 | 66 | 1012.2 |
| 20260504235002 | 80 | 88 | 5.0 | 15.0 | 0.00 | 0.03 | 0.02 | 66 | 1012.2 |
| 20260504234502 | 80 | 95 | 4.0 | 15.0 | 0.00 | 0.03 | 0.02 | 65 | 1012.2 |
| 20260504234002 | 81 | 98 | 4.0 | 11.0 | 0.00 | 0.03 | 0.02 | 64 | 1012.0 |
| 20260504233524 | 81 | 93 | 4.0 | 11.0 | 0.00 | 0.03 | 0.02 | 64 | 1011.9 |
| 20260504233003 | 82 | 91 | 4.0 | 9.0 | 0.00 | 0.03 | 0.02 | 63 | 1011.8 |
| 20260504232503 | 82 | 88 | 4.0 | 10.0 | 0.00 | 0.03 | 0.02 | 63 | 1011.8 |
| 20260504232003 | 82 | 87 | 4.0 | 10.0 | 0.00 | 0.03 | 0.02 | 62 | 1011.7 |
| 20260504231502 | 82 | 88 | 3.0 | 8.0 | 0.00 | 0.03 | 0.02 | 62 | 1011.7 |
| 20260504231003 | 82 | 87 | 3.0 | 8.0 | 0.00 | 0.03 | 0.02 | 61 | 1011.7 |
| 20260504230502 | 83 | 84 | 3.0 | 7.0 | 0.00 | 0.03 | 0.02 | 61 | 1011.6 |
| 20260504230002 | 83 | 86 | 3.0 | 7.0 | 0.00 | 0.03 | 0.02 | 61 | 1011.5 |
| 20260504225523 | 83 | 84 | 3.0 | 8.0 | 0.00 | 0.03 | 0.02 | 61 | 1011.5 |
| 20260504225002 | 83 | 80 | 4.0 | 8.0 | 0.00 | 0.03 | 0.02 | 60 | 1011.4 |
| 20260504224502 | 83 | 82 | 3.0 | 7.0 | 0.00 | 0.03 | 0.02 | 59 | 1011.5 |
| 20260504224002 | 84 | 82 | 4.0 | 11.0 | 0.00 | 0.03 | 0.02 | 59 | 1011.6 |
| 20260504223502 | 84 | 83 | 3.0 | 11.0 | 0.00 | 0.03 | 0.02 | 58 | 1011.6 |
| 20260504223024 | 84 | 81 | 2.0 | 7.0 | 0.00 | 0.03 | 0.02 | 57 | 1011.6 |
| 20260504222503 | 84 | 103 | 2.0 | 6.0 | 0.00 | 0.04 | 0.02 | 55 | 1011.6 |
| 20260504222023 | 84 | 110 | 2.0 | 6.0 | 0.00 | 0.04 | 0.02 | 55 | 1011.6 |
| 20260504221502 | 84 | 95 | 3.0 | 9.0 | 0.00 | 0.04 | 0.02 | 54 | 1011.6 |
| 20260504221002 | 84 | 94 | 3.0 | 9.0 | 0.00 | 0.04 | 0.02 | 55 | 1011.6 |
| 20260504220502 | 84 | 86 | 3.0 | 7.0 | 0.00 | 0.04 | 0.02 | 55 | 1011.6 |
| 20260504220002 | 85 | 81 | 4.0 | 9.0 | 0.00 | 0.04 | 0.02 | 55 | 1011.6 |
| 20260504215503 | 85 | 73 | 4.0 | 12.0 | 0.00 | 0.04 | 0.02 | 55 | 1011.7 |
| 20260504215023 | 86 | 72 | 4.0 | 12.0 | 0.00 | 0.04 | 0.02 | 55 | 1011.6 |
| 20260504214502 | 87 | 63 | 4.0 | 10.0 | 0.00 | 0.04 | 0.02 | 55 | 1011.5 |
| 20260504214003 | 86 | 59 | 4.0 | 10.0 | 0.00 | 0.04 | 0.02 | 55 | 1011.5 |
| 20260504213523 | 87 | 71 | 3.0 | 9.0 | 0.00 | 0.04 | 0.02 | 55 | 1011.5 |
| 20260504213002 | 85 | 80 | 3.0 | 6.0 | 0.00 | 0.04 | 0.02 | 56 | 1011.6 |
| 20260504212502 | 85 | 93 | 3.0 | 10.0 | 0.00 | 0.04 | 0.02 | 54 | 1011.6 |
| 20260504212003 | 86 | 95 | 3.0 | 10.0 | 0.00 | 0.04 | 0.02 | 53 | 1011.6 |
| 20260504211523 | 86 | 92 | 4.0 | 10.0 | 0.00 | 0.04 | 0.02 | 51 | 1011.7 |
| 20260504211002 | 87 | 87 | 3.0 | 10.0 | 0.00 | 0.04 | 0.02 | 51 | 1011.6 |
| 20260504210502 | 88 | 75 | 3.0 | 7.0 | 0.00 | 0.04 | 0.02 | 49 | 1011.6 |
| 20260504210003 | 88 | 81 | 3.0 | 7.0 | 0.00 | 0.04 | 0.02 | 48 | 1011.7 |
| 20260504205524 | 87 | 91 | 4.0 | 10.0 | 0.00 | 0.04 | 0.02 | 49 | 1011.9 |
| 20260504205003 | 88 | 84 | 3.0 | 10.0 | 0.00 | 0.04 | 0.02 | 48 | 1011.9 |
| 20260504204502 | 87 | 72 | 3.0 | 6.0 | 0.00 | 0.04 | 0.02 | 52 | 1011.9 |
| 20260504204003 | 86 | 76 | 3.0 | 6.0 | 0.00 | 0.04 | 0.02 | 53 | 1011.9 |
| 20260504203503 | 86 | 79 | 3.0 | 9.0 | 0.00 | 0.04 | 0.02 | 53 | 1011.9 |
| 20260504203024 | 86 | 80 | 4.0 | 9.0 | 0.00 | 0.04 | 0.02 | 52 | 1011.9 |
| 20260504202502 | 87 | 84 | 3.0 | 9.0 | 0.00 | 0.04 | 0.02 | 49 | 1011.9 |
| 20260504202002 | 88 | 94 | 2.0 | 7.0 | 0.00 | 0.04 | 0.02 | 50 | 1012.0 |
| 20260504201502 | 87 | 77 | 2.0 | 7.0 | 0.00 | 0.04 | 0.02 | 49 | 1012.1 |
| 20260504201003 | 87 | 80 | 3.0 | 7.0 | 0.00 | 0.04 | 0.02 | 49 | 1012.2 |
| 20260504200503 | 89 | 89 | 3.0 | 7.0 | 0.00 | 0.04 | 0.02 | 48 | 1012.2 |
| 20260504200002 | 88 | 84 | 3.0 | 10.0 | 0.00 | 0.05 | 0.02 | 50 | 1012.2 |
| 20260504195502 | 87 | 86 | 3.0 | 10.0 | 0.00 | 0.05 | 0.02 | 50 | 1012.2 |
| 20260504195002 | 87 | 75 | 4.0 | 10.0 | 0.00 | 0.05 | 0.02 | 51 | 1012.3 |
| 20260504194503 | 88 | 69 | 4.0 | 8.0 | 0.00 | 0.05 | 0.02 | 49 | 1012.4 |
| 20260504194002 | 87 | 69 | 4.0 | 10.0 | 0.00 | 0.05 | 0.02 | 52 | 1012.4 |
| 20260504193503 | 88 | 79 | 3.0 | 10.0 | 0.00 | 0.05 | 0.02 | 50 | 1012.6 |
| 20260504193002 | 88 | 79 | 5.0 | 11.0 | 0.00 | 0.05 | 0.02 | 50 | 1012.6 |
| 20260504192503 | 86 | 72 | 5.0 | 13.0 | 0.00 | 0.05 | 0.02 | 52 | 1012.6 |
| 20260504192002 | 88 | 72 | 3.0 | 13.0 | 0.00 | 0.05 | 0.02 | 51 | 1012.6 |
| 20260504191503 | 88 | 76 | 4.0 | 10.0 | 0.00 | 0.05 | 0.02 | 51 | 1012.7 |
| 20260504191003 | 86 | 70 | 5.0 | 13.0 | 0.00 | 0.05 | 0.02 | 51 | 1012.8 |
| 20260504190503 | 87 | 71 | 5.0 | 13.0 | 0.00 | 0.05 | 0.02 | 51 | 1012.9 |
| 20260504190003 | 89 | 91 | 4.0 | 10.0 | 0.00 | 0.05 | 0.02 | 50 | 1013.0 |
| 20260504185503 | 88 | 97 | 3.0 | 10.0 | 0.00 | 0.05 | 0.02 | 51 | 1013.2 |
| 20260504185023 | 88 | 75 | 4.0 | 12.0 | 0.00 | 0.05 | 0.02 | 50 | 1013.2 |
| 20260504184502 | 87 | 61 | 6.0 | 13.0 | 0.00 | 0.05 | 0.02 | 51 | 1013.3 |
| 20260504184002 | 86 | 72 | 5.0 | 13.0 | 0.00 | 0.05 | 0.02 | 51 | 1013.3 |
| 20260504183503 | 89 | 112 | 3.0 | 10.0 | 0.01 | 0.05 | 0.02 | 50 | 1013.4 |
| 20260504183003 | 87 | 120 | 4.0 | 11.0 | 0.01 | 0.05 | 0.02 | 51 | 1013.4 |
| 20260504182502 | 87 | 99 | 4.0 | 11.0 | 0.01 | 0.05 | 0.02 | 49 | 1013.7 |
| 20260504182002 | 87 | 90 | 3.0 | 10.0 | 0.01 | 0.05 | 0.02 | 53 | 1013.7 |
| 20260504181502 | 86 | 86 | 4.0 | 11.0 | 0.01 | 0.05 | 0.02 | 53 | 1013.9 |
| 20260504181002 | 86 | 81 | 4.0 | 11.0 | 0.01 | 0.05 | 0.02 | 53 | 1014.0 |
| 20260504180502 | 86 | 81 | 4.0 | 11.0 | 0.01 | 0.05 | 0.02 | 52 | 1013.9 |
| 20260504180003 | 86 | 74 | 4.0 | 11.0 | 0.01 | 0.05 | 0.02 | 53 | 1014.0 |
| 20260504175502 | 86 | 70 | 4.0 | 12.0 | 0.01 | 0.05 | 0.02 | 53 | 1014.1 |
| 20260504175003 | 86 | 77 | 5.0 | 12.0 | 0.01 | 0.05 | 0.02 | 54 | 1014.1 |
| 20260504174502 | 85 | 78 | 5.0 | 11.0 | 0.01 | 0.05 | 0.02 | 54 | 1014.3 |
| 20260504174003 | 85 | 72 | 4.0 | 12.0 | 0.01 | 0.05 | 0.02 | 53 | 1014.3 |
| 20260504173502 | 85 | 75 | 3.0 | 12.0 | 0.00 | 0.04 | 0.01 | 53 | 1014.3 |
| 20260504173002 | 86 | 81 | 3.0 | 15.0 | 0.00 | 0.05 | 0.01 | 54 | 1014.3 |
| 20260504172502 | 85 | 90 | 5.0 | 15.0 | 0.00 | 0.05 | 0.01 | 54 | 1014.3 |
| 20260504172003 | 86 | 85 | 5.0 | 15.0 | 0.00 | 0.05 | 0.01 | 53 | 1014.3 |
| 20260504171502 | 86 | 62 | 4.0 | 15.0 | 0.00 | 0.05 | 0.01 | 53 | 1014.4 |
| 20260504171024 | 85 | 62 | 5.0 | 14.0 | 0.00 | 0.05 | 0.01 | 55 | 1014.4 |
| 20260504170504 | 85 | 65 | 6.0 | 14.0 | 0.00 | 0.05 | 0.01 | 54 | 1014.7 |
| 20260504151002 | 82 | 64 | 5.0 | 15.0 | 0.00 | 0.06 | 0.01 | 59 | 1015.3 |
| 20260504150502 | 81 | 62 | 6.0 | 13.0 | 0.00 | 0.06 | 0.01 | 61 | 1015.4 |
| 20260504141002 | 78 | 67 | 5.0 | 13.0 | 0.00 | 0.06 | 0.01 | 67 | 1015.2 |
| 20260504140502 | 78 | 64 | 6.0 | 13.0 | 0.00 | 0.06 | 0.01 | 68 | 1015.1 |